TimeMDT,TemperatureF,Dew PointF,Humidity,Sea Level PressureIn,VisibilityMPH,Wind Direction,Wind SpeedMPH,Gust SpeedMPH,PrecipitationIn,Events,Conditions,WindDirDegrees,DateUTC
12:15 AM,63.1,44.6,51,30.45,10.0,WSW,6.9,-,N/A,,Clear,240,2013-08-22 06:15:00
12:35 AM,63.5,44.2,49,30.45,10.0,SW,9.2,-,N/A,,Clear,230,2013-08-22 06:35:00
12:55 AM,62.6,44.4,51,30.45,10.0,SW,8.1,-,N/A,,Clear,220,2013-08-22 06:55:00
1:15 AM,62.4,44.2,51,30.45,10.0,NW,6.9,-,N/A,,Clear,320,2013-08-22 07:15:00
1:35 AM,62.2,44.2,52,30.45,10.0,NE,6.9,-,N/A,,Clear,40,2013-08-22 07:35:00
1:55 AM,63.0,45.0,52,30.45,10.0,North,8.1,11.5,N/A,,Clear,360,2013-08-22 07:55:00
2:15 AM,62.1,45.5,55,30.45,10.0,North,4.6,-,N/A,,Clear,360,2013-08-22 08:15:00
2:35 AM,61.0,45.1,56,30.45,10.0,North,4.6,-,N/A,,Clear,360,2013-08-22 08:35:00
2:55 AM,61.2,45.3,56,30.44,10.0,NW,4.6,-,N/A,,Clear,310,2013-08-22 08:55:00
3:15 AM,60.3,45.1,57,30.44,10.0,NW,8.1,-,N/A,,Clear,320,2013-08-22 09:15:00
3:35 AM,61.0,45.1,56,30.44,10.0,Calm,Calm,-,N/A,,Clear,0,2013-08-22 09:35:00
3:55 AM,61.9,45.5,55,30.44,10.0,NW,3.5,-,N/A,,Clear,310,2013-08-22 09:55:00
4:15 AM,61.2,45.9,57,30.43,10.0,NNW,6.9,-,N/A,,Clear,330,2013-08-22 10:15:00
4:35 AM,61.2,46.0,58,30.44,10.0,NW,8.1,-,N/A,,Clear,310,2013-08-22 10:35:00
4:55 AM,60.3,46.4,60,30.44,10.0,NW,11.5,-,N/A,,Clear,320,2013-08-22 10:55:00
5:15 AM,60.8,46.0,58,30.45,10.0,NNW,12.7,19.6,N/A,,Clear,330,2013-08-22 11:15:00
5:35 AM,60.8,46.4,59,30.45,10.0,NW,12.7,-,N/A,,Clear,320,2013-08-22 11:35:00
5:55 AM,59.9,45.9,60,30.46,10.0,WNW,5.8,-,N/A,,Clear,300,2013-08-22 11:55:00
6:15 AM,60.3,45.9,59,30.47,10.0,NW,8.1,-,N/A,,Mostly Cloudy,310,2013-08-22 12:15:00
6:35 AM,60.4,46.2,59,30.47,10.0,NW,4.6,-,N/A,,Overcast,320,2013-08-22 12:35:00
6:55 AM,60.1,46.4,61,30.48,10.0,NW,4.6,-,N/A,,Overcast,310,2013-08-22 12:55:00
7:15 AM,60.1,46.4,61,30.48,10.0,Calm,Calm,-,N/A,,Overcast,0,2013-08-22 13:15:00
7:35 AM,60.3,46.4,60,30.49,10.0,WNW,3.5,-,N/A,,Overcast,290,2013-08-22 13:35:00
7:55 AM,60.8,46.4,59,30.49,10.0,North,6.9,-,N/A,,Overcast,350,2013-08-22 13:55:00
8:15 AM,61.5,46.6,58,30.49,10.0,NW,3.5,-,N/A,,Overcast,320,2013-08-22 14:15:00
8:35 AM,62.4,46.8,57,30.49,10.0,Calm,Calm,-,N/A,,Scattered Clouds,0,2013-08-22 14:35:00
8:55 AM,66.7,46.4,48,30.49,10.0,North,6.9,-,N/A,,Clear,350,2013-08-22 14:55:00
9:15 AM,68.4,46.0,45,30.48,10.0,North,6.9,-,N/A,,Clear,350,2013-08-22 15:15:00
9:35 AM,69.1,46.6,45,30.48,10.0,Calm,Calm,-,N/A,,Clear,0,2013-08-22 15:35:00
9:55 AM,69.6,46.0,43,30.48,10.0,Calm,Calm,-,N/A,,Scattered Clouds,0,2013-08-22 15:55:00
10:15 AM,71.6,45.1,39,30.47,10.0,NE,3.5,-,N/A,,Scattered Clouds,40,2013-08-22 16:15:00
10:35 AM,73.8,44.1,34,30.47,10.0,NE,4.6,-,N/A,,Scattered Clouds,40,2013-08-22 16:35:00
10:55 AM,75.4,43.3,32,30.47,10.0,North,3.5,-,N/A,,Scattered Clouds,360,2013-08-22 16:55:00
11:15 AM,77.4,42.6,29,30.46,10.0,Calm,Calm,-,N/A,,Scattered Clouds,0,2013-08-22 17:15:00
11:35 AM,78.8,37.8,23,30.45,10.0,SSE,3.5,-,N/A,,Clear,150,2013-08-22 17:35:00
11:55 AM,80.4,38.7,22,30.44,10.0,Calm,Calm,-,N/A,,Clear,0,2013-08-22 17:55:00
12:15 PM,78.4,40.1,25,30.43,10.0,SW,4.6,-,N/A,,Scattered Clouds,230,2013-08-22 18:15:00
12:35 PM,80.6,39.0,23,30.42,10.0,SW,4.6,-,N/A,,Scattered Clouds,220,2013-08-22 18:35:00
12:55 PM,81.0,39.0,22,30.41,10.0,SE,4.6,-,N/A,,Clear,130,2013-08-22 18:55:00
1:15 PM,82.4,38.1,21,30.41,10.0,Calm,Calm,-,N/A,,Clear,0,2013-08-22 19:15:00
1:35 PM,84.2,38.1,19,30.40,10.0,East,5.8,-,N/A,,Clear,90,2013-08-22 19:35:00
1:55 PM,85.5,38.3,19,30.39,10.0,East,3.5,-,N/A,,Clear,100,2013-08-22 19:55:00
2:15 PM,85.1,38.3,19,30.38,10.0,East,4.6,-,N/A,,Clear,100,2013-08-22 20:15:00
2:35 PM,82.8,39.0,21,30.37,10.0,ESE,8.1,-,N/A,,Clear,120,2013-08-22 20:35:00
2:55 PM,82.0,41.5,24,30.37,10.0,SE,9.2,-,N/A,,Scattered Clouds,130,2013-08-22 20:55:00
3:15 PM,81.0,43.0,26,30.37,10.0,SE,6.9,-,N/A,,Scattered Clouds,140,2013-08-22 21:15:00
3:35 PM,83.1,41.4,23,30.36,10.0,East,9.2,19.6,N/A,,Clear,90,2013-08-22 21:35:00
3:55 PM,82.9,40.6,22,30.35,10.0,South,9.2,16.1,N/A,,Clear,170,2013-08-22 21:55:00
4:15 PM,80.1,45.0,29,30.34,10.0,ESE,4.6,-,N/A,,Scattered Clouds,110,2013-08-22 22:15:00
4:35 PM,83.3,42.1,23,30.33,10.0,SE,6.9,-,N/A,,Scattered Clouds,140,2013-08-22 22:35:00
4:55 PM,76.5,58.5,54,30.32,7.0,SE,10.4,19.6,N/A,,Scattered Clouds,130,2013-08-22 22:55:00
5:15 PM,78.6,52.2,40,30.32,10.0,ESE,13.8,-,N/A,,Scattered Clouds,110,2013-08-22 23:15:00
5:35 PM,77.5,50.9,39,30.32,10.0,ESE,11.5,16.1,N/A,,Mostly Cloudy,110,2013-08-22 23:35:00
5:55 PM,77.4,50.2,38,30.32,10.0,ESE,9.2,16.1,N/A,,Overcast,110,2013-08-22 23:55:00
6:15 PM,77.2,50.2,39,30.32,10.0,SE,10.4,-,N/A,,Mostly Cloudy,130,2013-08-23 00:15:00
6:35 PM,76.6,50.7,40,30.31,10.0,SE,11.5,-,N/A,,Mostly Cloudy,130,2013-08-23 00:35:00
6:55 PM,76.1,50.5,41,30.31,10.0,SE,9.2,-,N/A,,Scattered Clouds,130,2013-08-23 00:55:00
7:15 PM,77.0,49.3,38,30.32,10.0,South,8.1,18.4,N/A,,Mostly Cloudy,180,2013-08-23 01:15:00
7:35 PM,73.6,51.4,46,30.34,10.0,ESE,15.0,23.0,N/A,,Overcast,120,2013-08-23 01:35:00
7:55 PM,71.1,51.1,49,30.34,10.0,ESE,12.7,20.7,N/A,,Mostly Cloudy,110,2013-08-23 01:55:00
8:15 PM,70.7,50.5,49,30.35,10.0,East,8.1,19.6,N/A,,Mostly Cloudy,100,2013-08-23 02:15:00
8:35 PM,71.4,50.4,47,30.38,10.0,NNE,4.6,-,N/A,,Overcast,30,2013-08-23 02:35:00
8:55 PM,69.6,51.3,52,30.40,10.0,NW,6.9,-,N/A,,Overcast,320,2013-08-23 02:55:00
9:15 PM,68.0,50.2,53,30.43,10.0,NNW,9.2,-,N/A,,Overcast,330,2013-08-23 03:15:00
9:35 PM,68.2,51.3,55,30.43,10.0,Calm,Calm,-,N/A,,Overcast,0,2013-08-23 03:35:00
9:55 PM,64.6,53.1,66,30.45,10.0,ESE,9.2,-,N/A,,Mostly Cloudy,110,2013-08-23 03:55:00
10:15 PM,60.6,53.2,77,30.47,7.0,SSE,4.6,-,N/A,,Mostly Cloudy,150,2013-08-23 04:15:00
10:35 PM,58.6,55.2,88,30.48,3.0,SE,5.8,-,N/A,,Overcast,140,2013-08-23 04:35:00
10:55 PM,59.2,56.1,90,30.49,5.0,NE,6.9,-,N/A,,Overcast,50,2013-08-23 04:55:00
11:15 PM,59.0,56.3,91,30.49,5.0,SE,11.5,-,N/A,,Overcast,140,2013-08-23 05:15:00
11:35 PM,58.1,56.1,93,30.48,7.0,ESE,6.9,16.1,N/A,,Overcast,120,2013-08-23 05:35:00
11:55 PM,58.1,56.1,93,30.47,10.0,East,6.9,-,N/A,,Overcast,100,2013-08-23 05:55:00